Weather History for Big Delta, AK

Change the Weather History Date:

Sunday, October 20, 2013

  Actual Average Record
Temperature  
Mean Temperature 42 °F -  
Max Temperature 50 °F 25 °F 50 °F (2013)
Min Temperature 30 °F 12 °F -13 °F (1996)
Degree Days  
Heating Degree Days 24    
Moisture  
Dew Point 23 °F    
Average Humidity 43    
Maximum Humidity 69    
Minimum Humidity 25    
Precipitation  
Precipitation 0.00 in - - ()
Sea Level Pressure  
Sea Level Pressure 29.79 in    
Wind  
Wind Speed 19 mph (South)    
Max Wind Speed 29 mph    
Max Gust Speed 43 mph    
Visibility 10 miles    
Events      
Averages and records for this station are not official NWS values.
T = Trace of Precipitation, MM = Missing Value Source: NWS Daily Summary

Daily Weather History Graph

Daily Weather History Graph

Search for Another Location

Airport:

Trip Planner

Search our weather history database for the weather conditions in past years. The results will help you decide how hot, cold, wet, or windy it might be!

Date:

Astronomy

Oct. 20, 2013 Rise Set
Actual Time 8:49 AM AKDT 6:04 PM AKDT
Civil Twilight 7:59 AM AKDT 6:54 PM AKDT
Nautical Twilight 7:04 AM AKDT 7:49 PM AKDT
Astronomical Twilight 6:09 AM AKDT 8:44 PM AKDT
Moon 6:32 PM AKDT (10/20) 11:20 AM AKDT (10/20)
Length of Visible Light 10h 54m
Length of Day
9h 15m
Waning Gibbous, 96% of the Moon is Illuminated
Oct 20
Waning Gibbous
Oct 26
Last Quarter
Nov 3
New
Nov 9
First Quarter
Nov 17
Full

Hourly Weather History & Observations

Time (AKDT) Temp. Windchill Dew Point Humidity Pressure Visibility Wind Dir Wind Speed Gust Speed Precip Events Conditions
12:53 AM 45.0 °F 36.0 °F 25.0 °F 46% 29.65 in 10.0 mi South 25.3 mph 36.8 mph N/A   Clear
1:53 AM 45.0 °F 36.4 °F 25.0 °F 46% 29.66 in 10.0 mi South 23.0 mph 35.7 mph N/A   Clear
2:53 AM 45.0 °F 36.0 °F 25.0 °F 46% 29.66 in 10.0 mi South 25.3 mph 42.6 mph N/A   Clear
3:53 AM 46.0 °F 36.9 °F 24.1 °F 42% 29.67 in 10.0 mi South 28.8 mph 42.6 mph N/A   Clear
4:53 AM 46.0 °F 37.8 °F 24.1 °F 42% 29.70 in 10.0 mi South 23.0 mph 35.7 mph N/A   Clear
5:53 AM 46.0 °F 37.4 °F 25.0 °F 44% 29.71 in 10.0 mi South 25.3 mph 36.8 mph N/A   Clear
6:53 AM 45.0 °F 36.4 °F 25.0 °F 46% 29.70 in 10.0 mi South 23.0 mph 33.4 mph N/A   Scattered Clouds
7:53 AM 45.0 °F 36.4 °F 24.1 °F 44% 29.71 in 10.0 mi South 23.0 mph 38.0 mph N/A   Scattered Clouds
8:53 AM 45.0 °F 38.9 °F 24.1 °F 44% 29.73 in 10.0 mi South 12.7 mph 28.8 mph N/A   Scattered Clouds
9:53 AM 42.1 °F 36.6 °F 24.1 °F 49% 29.77 in 10.0 mi NE 9.2 mph - N/A   Scattered Clouds
10:53 AM 46.9 °F - 24.1 °F 41% 29.78 in 10.0 mi South 10.4 mph - N/A   Scattered Clouds
11:53 AM 48.0 °F - 24.1 °F 39% 29.80 in 10.0 mi Variable 3.5 mph - N/A   Scattered Clouds
12:53 PM 48.9 °F - 21.9 °F 35% 29.81 in 10.0 mi SSW 9.2 mph 23.0 mph N/A   Scattered Clouds
1:53 PM 48.9 °F - 21.9 °F 35% 29.82 in 10.0 mi SSW 16.1 mph - N/A   Mostly Cloudy
2:53 PM 50.0 °F - 21.0 °F 32% 29.83 in 10.0 mi SSW 16.1 mph 24.2 mph N/A   Mostly Cloudy
3:53 PM 48.0 °F - 23.0 °F 37% 29.82 in 10.0 mi SSW 16.1 mph 28.8 mph N/A   Mostly Cloudy
4:53 PM 46.0 °F 39.3 °F 25.0 °F 44% 29.83 in 10.0 mi SSW 16.1 mph 27.6 mph N/A   Mostly Cloudy
5:53 PM 44.1 °F 36.8 °F 23.0 °F 43% 29.84 in 10.0 mi SSW 16.1 mph - N/A   Mostly Cloudy
6:53 PM 39.9 °F 34.5 °F 21.0 °F 47% 29.86 in 10.0 mi South 8.1 mph - N/A   Scattered Clouds
7:53 PM 39.9 °F 33.9 °F 21.9 °F 49% 29.88 in 10.0 mi SSW 9.2 mph - N/A   Scattered Clouds
8:53 PM 39.0 °F 34.0 °F 21.9 °F 50% 29.90 in 10.0 mi SSW 6.9 mph - N/A   Scattered Clouds
9:53 PM 37.9 °F 33.5 °F 21.9 °F 53% 29.91 in 10.0 mi SSW 5.8 mph - N/A   Clear
10:53 PM 33.1 °F 27.7 °F 21.9 °F 64% 29.93 in 10.0 mi SE 5.8 mph - N/A   Clear
11:53 PM 30.9 °F 27.5 °F 21.9 °F 69% 29.94 in 10.0 mi ESE 3.5 mph - N/A   Clear